Wind_Speed
9 9 8 7 6 5 4 2 1 2 4 5 5 6 7 7 8 8 9 9 8 8 9 9 9 9 9 9 9 9 10 10 10 10 10 10 9 9 9 9 9 10 9
9 8 8 8 7 6 5 4 3 2 4 4 5 5 6 7 7 8 9 9 9 9 8 8 8 8 8 9 9 9 9 10 10 10 10 10 10 10 10 10 10 10 9
8 9 8 8 7 7 6 5 4 2 3 3 4 5 6 6 8 8 9 9 9 9 9 8 7 8 8 9 9 9 9 9 9 10 10 10 10 11 11 10 10 10 10
8 8 8 8 8 7 6 5 4 3 3 3 3 4 5 6 7 7 8 8 9 9 8 8 7 7 8 8 9 9 9 9 9 9 9 10 10 10 11 11 11 11 11
8 8 8 8 8 7 7 6 5 4 4 3 3 3 4 5 6 7 7 8 8 8 8 7 7 7 7 8 9 9 9 8 8 8 9 10 10 10 10 11 11 11 11
8 8 8 8 7 7 7 6 5 5 4 3 3 3 3 4 5 6 7 7 8 7 7 7 7 7 6 8 8 8 8 8 8 8 9 9 9 10 10 10 10 10 10
7 7 7 8 8 7 7 6 6 5 5 4 3 3 3 3 4 5 6 6 7 7 6 6 6 6 5 6 7 8 8 8 8 8 8 8 9 9 9 10 10 10 10
6 6 7 7 7 7 7 6 6 5 4 4 3 3 3 3 3 4 4 5 6 6 5 5 6 6 5 5 6 6 7 7 8 8 8 8 9 8 9 10 10 10 9
6 6 7 7 7 7 7 7 6 5 4 4 3 2 3 3 4 4 4 5 5 5 5 5 5 5 5 5 6 6 6 6 7 8 9 8 8 7 8 8 9 10 10
5 6 6 7 7 6 6 6 6 5 5 4 3 3 3 4 4 4 4 4 4 4 4 5 5 5 5 6 6 6 6 6 7 8 8 8 8 8 8 9 10 10 11
5 5 6 6 6 6 6 6 5 5 5 5 4 3 3 3 3 3 3 3 3 3 4 4 5 5 6 6 6 6 7 6 6 6 7 8 8 8 9 9 10 10 11
4 5 5 6 6 7 7 6 6 6 6 5 4 3 3 3 3 2 2 3 3 4 4 5 5 5 6 6 6 6 7 7 7 7 8 8 9 9 10 11 11 12 12
4 5 5 5 5 6 6 6 6 6 6 5 5 4 3 2 1 1 2 3 4 5 5 5 5 6 7 7 7 7 8 9 9 9 10 10 11 11 12 12 12 13 14
2 3 4 4 5 5 5 5 5 5 5 4 4 3 2 1 1 2 3 4 4 4 5 5 6 7 8 8 9 9 9 10 11 11 11 12 12 12 13 13 13 14 14
1 2 2 3 4 4 4 4 4 4 4 3 3 3 2 2 3 3 3 3 4 4 5 6 6 7 9 10 10 11 11 12 12 13 13 13 13 14 14 15 15 16 16
2 2 2 3 3 4 4 4 4 4 4 4 4 4 4 3 4 4 4 4 5 5 6 6 6 8 9 10 11 12 12 13 13 13 14 14 14 15 15 16 17 17 18
3 3 3 3 3 4 4 4 4 5 5 5 5 5 5 6 6 5 5 6 6 8 8 8 8 9 10 11 13 13 13 13 14 14 15 15 16 16 17 18 18 18 19
6 6 6 5 5 5 5 6 6 6 6 6 7 7 7 6 6 6 7 7 8 9 10 9 9 10 11 12 14 15 15 15 16 16 17 17 17 18 19 19 20 20 21
7 7 7 7 7 7 7 7 7 7 7 8 8 8 8 7 7 8 9 9 10 10 10 10 12 13 13 14 15 16 17 17 18 18 19 19 20 20 21 22 22 23 23
9 8 8 8 8 8 8 8 8 8 9 9 9 9 9 8 9 10 11 11 12 12 12 13 14 14 15 16 17 18 18 19 19 20 22 22 22 23 24 25 26 27 27
11 11 10 10 10 9 9 10 10 10 10 11 11 10 11 11 11 12 12 13 14 14 15 15 16 17 17 18 18 19 20 21 22 22 23 24 25 26 27 28 29 30 31
12 13 13 12 12 12 12 12 12 12 12 12 12 12 13 13 14 14 15 15 16 16 17 18 18 19 20 20 20 21 22 23 24 25 26 27 29 30 31 32 33 33 34
14 14 15 15 15 14 14 14 14 14 15 15 14 14 15 15 15 16 17 17 18 18 19 20 20 21 22 23 23 25 26 27 28 29 30 31 32 32 33 33 34 35 36
16 16 16 16 16 16 16 16 16 16 16 16 17 17 17 18 18 19 19 19 20 20 21 22 23 24 25 26 27 28 29 30 31 32 32 33 34 35 35 36 37 37 38
17 17 17 17 17 17 18 18 17 17 18 18 18 19 19 20 21 21 21 22 22 23 24 24 25 27 28 29 30 31 32 32 33 34 35 36 36 37 37 38 39 40 41
18 18 18 18 19 19 20 20 19 19 19 20 20 21 21 22 23 23 23 24 25 25 26 27 28 30 30 31 32 33 33 34 35 36 37 38 38 38 38 39 41 42 43
Wind_Direction
13 14 18 22 25 29 38 53 99 167 174 179 184 188 193 194 198 200 204 207 208 208 209 212 215 217 218 218 219 224 228 231 231 236 241 241 244 246 251 253 254 254 252
18 21 24 28 33 41 52 69 90 134 170 181 190 194 197 199 201 202 204 209 209 208 211 214 216 218 219 219 221 225 227 230 233 236 241 244 244 245 250 254 257 256 253
25 27 28 34 40 49 56 68 88 117 150 172 184 192 199 202 201 201 203 206 207 209 213 217 218 223 223 220 222 226 229 232 234 237 240 244 246 246 247 249 253 255 257
32 31 33 38 46 52 55 61 72 83 108 140 167 187 193 195 199 200 201 203 206 210 211 215 220 224 224 225 228 230 232 233 236 242 245 247 249 252 252 251 252 256 258
36 36 37 40 47 53 57 61 72 85 99 116 134 159 180 190 196 197 196 201 206 210 212 216 220 226 226 224 226 229 233 235 240 245 249 252 254 257 255 256 254 257 257
40 40 41 43 45 50 54 60 69 81 87 106 123 137 163 183 192 193 192 197 200 206 213 215 219 223 226 225 225 229 232 235 241 246 249 251 253 255 255 257 256 257 260
44 43 42 46 47 50 54 59 66 70 73 89 109 128 158 173 183 190 191 193 196 204 211 211 213 216 224 229 227 229 233 239 242 245 246 248 252 255 255 255 256 258 264
46 45 44 47 49 52 54 56 62 66 68 76 94 109 133 162 174 183 190 194 194 199 203 209 215 218 227 232 227 227 236 243 243 244 245 248 250 253 256 254 255 260 267
43 48 48 49 52 55 57 56 58 59 62 67 78 104 139 149 159 172 177 182 189 200 206 214 222 226 233 234 233 236 241 244 243 243 243 244 249 255 259 259 259 263 269
43 47 48 50 53 55 56 53 56 56 57 61 70 96 125 140 149 166 174 179 188 200 209 216 220 228 237 234 234 237 240 242 242 241 240 245 249 255 262 265 267 269 271
46 49 49 48 49 53 53 51 52 51 53 60 64 86 107 123 138 158 174 185 201 217 226 229 233 238 238 237 240 243 244 240 246 245 248 251 255 263 265 265 267 271 272
52 52 50 46 47 50 51 50 50 47 51 56 55 74 103 124 138 161 190 209 228 236 240 242 241 239 238 241 246 249 244 245 255 259 258 259 260 261 263 265 267 269 273
56 48 48 46 43 45 46 45 47 42 47 50 51 65 85 106 129 201 240 250 249 252 255 257 254 250 248 250 252 254 256 257 259 262 263 265 264 265 266 268 271 272 274
44 33 35 39 39 41 42 39 36 33 34 36 38 44 46 44 340 299 282 276 264 262 263 265 265 259 252 255 257 259 264 266 262 264 265 267 267 267 267 269 271 274 275
320 356 8 13 19 21 21 23 26 23 16 16 13 3 356 334 325 317 294 284 275 269 262 264 267 266 262 261 262 263 265 266 266 266 268 269 268 269 270 270 272 274 276
269 300 329 339 350 353 352 348 357 358 355 353 347 339 330 321 318 315 301 293 283 277 276 275 278 275 269 264 266 267 267 268 268 269 270 271 273 272 272 272 274 275 277
262 275 290 298 314 322 323 324 326 329 328 324 320 315 306 299 297 293 288 287 284 285 286 288 288 285 280 273 271 271 273 272 272 273 273 274 275 276 275 274 276 277 278
260 269 273 280 289 295 299 302 305 309 311 311 310 306 301 296 291 286 286 287 285 285 290 290 288 289 286 280 277 275 276 278 278 276 276 277 278 278 277 276 278 278 278
258 263 267 273 278 283 288 291 293 296 301 306 308 306 301 294 289 288 287 287 285 289 291 288 287 290 288 284 282 279 278 279 280 278 278 279 280 280 279 278 278 278 278
256 259 266 271 277 282 286 287 288 291 293 296 299 300 298 296 293 291 288 286 286 288 289 288 289 292 290 287 284 283 281 281 282 281 281 281 282 282 281 281 280 280 280
253 258 264 269 275 279 283 286 289 292 291 290 291 290 292 294 293 291 290 288 288 288 289 288 288 290 291 291 288 284 282 282 283 284 283 283 283 284 284 283 282 282 282
253 258 263 267 270 274 278 280 283 287 289 289 289 288 289 289 290 291 292 291 291 290 288 289 289 289 289 290 289 287 284 284 283 283 283 283 283 284 284 284 284 284 284
258 261 263 264 267 270 274 277 280 282 283 285 286 286 287 289 291 292 292 293 294 292 290 291 291 292 291 290 289 288 286 285 285 284 283 283 283 284 284 285 284 284 284
261 264 268 267 267 268 271 274 277 279 280 282 284 285 285 285 287 290 291 290 291 292 292 292 292 292 292 292 292 290 289 287 287 286 285 285 284 285 284 284 284 284 284
262 266 268 268 268 269 272 274 275 277 280 281 283 284 285 287 287 287 288 290 291 292 293 293 293 294 293 293 292 291 290 289 288 288 288 287 286 286 286 286 285 285 285
265 266 268 268 269 270 272 274 275 277 280 282 283 284 285 286 288 288 288 289 290 291 293 294 294 295 295 294 293 293 292 292 290 289 289 288 288 287 287 287 286 286 285
Height
5874 5872 5870 5868 5867 5865 5865 5864 5864 5864 5865 5866 5867 5869 5870 5871 5873 5874 5876 5877 5879 5880 5881 5882 5884 5885 5886 5887 5888 5889 5890 5891 5892 5893 5894 5895 5896 5896 5897 5897 5898 5898 5898
5874 5872 5870 5869 5867 5866 5865 5864 5864 5864 5865 5866 5867 5868 5869 5871 5872 5874 5875 5876 5878 5879 5880 5881 5882 5883 5885 5886 5887 5888 5889 5890 5891 5892 5893 5893 5894 5894 5895 5895 5895 5896 5896
5875 5873 5871 5869 5867 5866 5865 5865 5865 5865 5865 5866 5867 5868 5869 5870 5871 5873 5874 5876 5877 5879 5880 5881 5881 5883 5884 5885 5886 5887 5887 5888 5889 5890 5891 5891 5892 5892 5893 5893 5893 5894 5894
5875 5873 5872 5870 5868 5867 5866 5866 5865 5865 5865 5866 5866 5867 5868 5869 5871 5872 5873 5875 5876 5878 5879 5880 5881 5882 5882 5883 5884 5885 5886 5887 5887 5888 5889 5889 5890 5890 5890 5891 5891 5891 5891
5876 5874 5872 5871 5870 5868 5868 5867 5866 5866 5866 5866 5866 5867 5868 5869 5870 5871 5873 5874 5876 5877 5878 5879 5880 5880 5881 5882 5883 5883 5884 5885 5886 5886 5887 5887 5887 5888 5888 5888 5889 5889 5889
5876 5875 5873 5872 5871 5870 5869 5868 5867 5867 5867 5867 5867 5867 5868 5869 5870 5871 5872 5874 5875 5876 5877 5878 5879 5879 5880 5880 5881 5882 5883 5883 5884 5884 5884 5885 5885 5885 5886 5886 5886 5886 5886
5877 5876 5875 5873 5872 5871 5870 5869 5869 5868 5868 5868 5868 5868 5868 5869 5870 5871 5872 5873 5874 5875 5876 5877 5878 5878 5879 5879 5880 5880 5881 5881 5882 5882 5882 5883 5883 5883 5883 5883 5883 5884 5883
5878 5877 5876 5874 5874 5873 5872 5871 5870 5869 5869 5869 5868 5868 5868 5869 5869 5870 5871 5872 5873 5874 5875 5876 5876 5877 5877 5878 5878 5879 5879 5879 5880 5880 5880 5880 5881 5881 5881 5881 5881 5881 5881
5879 5878 5877 5876 5875 5874 5873 5872 5871 5870 5870 5869 5868 5868 5868 5868 5869 5870 5871 5872 5873 5873 5874 5875 5875 5876 5876 5876 5877 5877 5877 5877 5877 5878 5878 5878 5878 5879 5879 5879 5879 5879 5878
5879 5879 5878 5877 5876 5875 5874 5873 5872 5871 5870 5869 5868 5868 5868 5868 5869 5870 5871 5871 5872 5873 5873 5874 5874 5874 5875 5875 5875 5875 5876 5876 5876 5876 5876 5876 5876 5877 5877 5876 5876 5876 5876
5880 5879 5879 5878 5877 5876 5875 5874 5873 5872 5871 5870 5869 5868 5868 5868 5869 5870 5871 5872 5872 5872 5872 5872 5873 5873 5873 5873 5873 5873 5874 5874 5874 5874 5874 5874 5874 5874 5874 5874 5874 5873 5873
5881 5880 5879 5879 5878 5877 5876 5875 5874 5873 5872 5871 5870 5869 5869 5869 5869 5870 5871 5871 5871 5871 5871 5871 5871 5871 5872 5872 5872 5872 5872 5872 5872 5872 5872 5872 5872 5872 5872 5871 5871 5870 5870
5881 5881 5880 5879 5879 5878 5877 5876 5875 5874 5873 5872 5871 5870 5870 5870 5870 5870 5870 5870 5870 5870 5870 5870 5870 5869 5870 5870 5870 5870 5870 5870 5870 5870 5870 5869 5869 5869 5869 5868 5868 5867 5866
5882 5881 5880 5880 5879 5879 5878 5877 5876 5875 5874 5873 5872 5871 5871 5870 5870 5870 5869 5869 5869 5869 5868 5868 5868 5867 5867 5867 5867 5867 5867 5867 5867 5867 5867 5866 5866 5865 5865 5865 5864 5863 5863
5882 5881 5881 5880 5879 5879 5878 5877 5876 5875 5874 5873 5872 5872 5871 5870 5870 5869 5868 5868 5868 5867 5867 5866 5865 5865 5864 5864 5864 5864 5864 5864 5864 5864 5863 5863 5862 5862 5861 5861 5860 5860 5859
5881 5881 5880 5880 5879 5879 5878 5877 5876 5875 5874 5873 5872 5872 5871 5870 5869 5868 5867 5867 5866 5866 5865 5865 5863 5862 5861 5861 5861 5861 5861 5860 5860 5860 5859 5859 5858 5857 5857 5856 5856 5855 5854
5880 5880 5880 5879 5879 5878 5877 5876 5875 5874 5874 5873 5872 5870 5870 5869 5868 5867 5866 5866 5865 5864 5863 5863 5861 5860 5859 5858 5858 5858 5857 5857 5856 5856 5855 5855 5854 5853 5852 5852 5851 5850 5849
5879 5878 5878 5878 5877 5877 5876 5875 5874 5873 5873 5872 5870 5869 5868 5867 5866 5866 5865 5864 5863 5862 5861 5860 5859 5857 5856 5855 5854 5854 5853 5853 5853 5852 5851 5850 5849 5848 5848 5847 5846 5845 5844
5877 5876 5876 5876 5876 5875 5874 5874 5873 5872 5871 5870 5869 5868 5866 5865 5865 5864 5863 5862 5861 5860 5859 5857 5856 5854 5853 5852 5851 5850 5849 5849 5848 5847 5846 5845 5844 5843 5842 5841 5840 5839 5837
5874 5874 5874 5874 5873 5873 5872 5872 5871 5870 5869 5868 5867 5865 5864 5863 5863 5862 5861 5859 5858 5857 5856 5854 5853 5851 5849 5848 5846 5845 5844 5844 5843 5842 5841 5840 5838 5837 5836 5834 5833 5832 5830
5872 5872 5872 5871 5871 5870 5870 5869 5868 5867 5866 5865 5864 5863 5862 5861 5860 5859 5858 5857 5855 5854 5852 5850 5849 5847 5845 5843 5841 5840 5839 5839 5837 5836 5835 5833 5832 5830 5828 5827 5825 5823 5822
5868 5868 5868 5868 5867 5867 5867 5866 5865 5865 5864 5862 5861 5860 5859 5858 5857 5855 5854 5853 5851 5849 5848 5846 5844 5842 5840 5839 5837 5835 5834 5833 5831 5830 5828 5826 5824 5822 5820 5818 5816 5814 5812
5864 5864 5864 5864 5864 5863 5863 5862 5861 5861 5860 5859 5858 5856 5855 5854 5853 5851 5850 5848 5846 5845 5843 5841 5839 5837 5835 5833 5832 5830 5827 5826 5824 5822 5820 5818 5816 5813 5811 5808 5806 5804 5802
5860 5860 5860 5860 5859 5859 5859 5858 5857 5856 5855 5854 5853 5852 5851 5850 5848 5847 5845 5843 5841 5839 5837 5835 5833 5831 5829 5826 5824 5822 5820 5817 5815 5812 5810 5808 5806 5803 5801 5798 5795 5793 5791
5856 5856 5856 5855 5855 5854 5854 5853 5853 5852 5851 5850 5848 5847 5845 5844 5843 5841 5840 5838 5836 5833 5831 5829 5826 5824 5821 5819 5816 5814 5811 5809 5806 5803 5800 5797 5795 5792 5790 5787 5784 5781 5779
5851 5851 5851 5850 5850 5849 5849 5848 5847 5847 5846 5844 5843 5842 5840 5838 5837 5835 5833 5831 5829 5827 5825 5822 5819 5816 5813 5810 5807 5804 5801 5798 5796 5793 5789 5786 5783 5780 5779 5776 5772 5769 5766